Вернуться в каталог

STARLINK-2753

АктивенСвязьVLEO
NORAD 48696·PAYLOAD·🇺🇸 United States

Запущен May 26, 2021 с Cape Canaveral Space Force Station

Loading…

Ближайшие Пролёты (ближайшие 24 часа)

TLE

СвежийSource: CelesTrak SupGP

Эпоха: Sep 15, 2026, 02:07 UTC

1 48696C 21044BL  26258.08868056  .00043862  00000+0  13106-2 0  2581
2 48696  53.1573 286.8791 0003989  41.4518 301.3306 15.34006003    11

Отслеживайте STARLINK-2753 в реальном времени с AllMySat

Download on the App Store